This is the latest recevied weather packets stored in our database for station/object K5IDL. If no packets are shown the sender has not sent any weather packets the latest 10 day(s).
| Time | Temp. | Humidity | Pressure | Rain* | Wind** | Luminosity | Snow |
|---|---|---|---|---|---|---|---|
| 1788136313 | 96° F | 38% | 760.4 mmHg | 0 in | - | 7 W/m² | - |
| 1788136012 | 96° F | 38% | 760.6 mmHg | 0 in | - | 9 W/m² | - |
| 1788135707 | 96° F | 38% | 760.6 mmHg | 0 in | - | 10 W/m² | - |
| 1788135403 | 96° F | 38% | 760.5 mmHg | 0 in | - | 11 W/m² | - |
| 1788135098 | 96° F | 38% | 760.6 mmHg | 0 in | - | 12 W/m² | - |
| 1788134794 | 96° F | 38% | 760.6 mmHg | 0 in | - | 14 W/m² | - |
| 1788134489 | 96° F | 38% | 760.6 mmHg | 0 in | - | 14 W/m² | - |
| 1788134187 | 96° F | 38% | 760.8 mmHg | 0 in | - | 15 W/m² | - |
| 1788133882 | 97° F | 38% | 760.7 mmHg | 0 in | - | 15 W/m² | - |
| 1788133577 | 97° F | 37% | 760.6 mmHg | 0 in | - | 15 W/m² | - |
| 1788133273 | 97° F | 36% | 760.6 mmHg | 0 in | - | 17 W/m² | - |
| 1788132968 | 97° F | 36% | 760.6 mmHg | 0 in | - | 25 W/m² | - |
| 1788132664 | 97° F | 37% | 760.6 mmHg | 0 in | - | 25 W/m² | - |
| 1788132360 | 97° F | 37% | 760.6 mmHg | 0 in | - | 19 W/m² | - |
| 1788132056 | 97° F | 36% | 760.6 mmHg | 0 in | - | 19 W/m² | - |
| 1788131751 | 98° F | 36% | 760.7 mmHg | 0 in | - | 20 W/m² | - |
| 1788131450 | 98° F | 36% | 760.7 mmHg | 0 in | - | 22 W/m² | - |
| 1788131146 | 98° F | 36% | 760.6 mmHg | 0 in | - | 25 W/m² | - |
| 1788130840 | 99° F | 35% | 760.7 mmHg | 0 in | - | 27 W/m² | - |
| 1788130535 | 100° F | 34% | 760.6 mmHg | 0 in | - | 32 W/m² | - |
| 1788130230 | 100° F | 33% | 760.6 mmHg | 0 in | - | 36 W/m² | - |
| 1788129928 | 99° F | 34% | 760.7 mmHg | 0 in | - | 38 W/m² | - |
| 1788129626 | 99° F | 34% | 760.8 mmHg | 0 in | - | 40 W/m² | - |
| 1788129322 | 99° F | 34% | 760.9 mmHg | 0 in | - | 47 W/m² | - |
| 1788129021 | 100° F | 33% | 760.8 mmHg | 0 in | - | 57 W/m² | - |
* Rain latest hour (hover to see other rain measurements)
** Current wind speed in m/s (hover to see current wind gust speed)